When you browse on this site, cookies collect data to enhance your experience and personalize the content and advertising you see.
Visit our Privacy Policy to learn more. By continuing to use the site, you agree to this use of cookies and data.
  • In Italy
  • List of Countries
  • For 7 days
  • Water Temperature
  • Satellite Maps
  • Weather Map
  • Weather Widgets
  • user-avatar
    Login

    Hourly Weather Mahilyow

    Today, 19 February, Tuesday

    Time Temperature Precipitation Wind Pressure Humidity
    00:00 -6°C° 0 mm 1 mps 754 mmHg 86%
    01:00 -7°C° 0 mm 2 mps 754 mmHg 87%
    02:00 -8°C° 0 mm 2 mps 753 mmHg 86%
    03:00 -8°C° 0 mm 2 mps 753 mmHg 87%
    04:00 -8°C° 0 mm 2 mps 753 mmHg 87%
    05:00 -9°C° 0 mm 3 mps 752 mmHg 87%
    06:00 -8°C° 0 mm 3 mps 752 mmHg 86%
    07:00 -8°C° 0 mm 3 mps 752 mmHg 86%
    08:00 -8°C° 0 mm 3 mps 752 mmHg 85%
    09:00 -7°C° 0 mm 4 mps 751 mmHg 83%
    10:00 -4°C° 0 mm 4 mps 751 mmHg 82%
    11:00 -2°C° 0 mm 4 mps 750 mmHg 80%
    12:00 -2°C° 0 mm 5 mps 750 mmHg 82%
    13:00 -1°C° 0 mm 5 mps 749 mmHg 84%
    14:00 0°C° 0 mm 4 mps 748 mmHg 90%
    15:00 0°C° 0 mm 4 mps 747 mmHg 88%
    16:00 0°C° 0 mm 5 mps 747 mmHg 86%
    17:00 0°C° 0 mm 5 mps 746 mmHg 85%
    18:00 0°C° 0 mm 5 mps 745 mmHg 85%
    19:00 0°C° 0 mm 5 mps 745 mmHg 86%
    20:00 -1°C° 0 mm 6 mps 744 mmHg 87%
    21:00 0°C° 0 mm 5 mps 744 mmHg 88%
    22:00 0°C° 0 mm 5 mps 743 mmHg 90%
    23:00 -1°C° 0 mm 5 mps 743 mmHg 91%

    Tomorrow, 20 February, Wednesday

    Time Temperature Precipitation Wind Pressure Humidity
    00:00 -1°C° 0 mm 4 mps 742 mmHg 92%
    01:00 -1°C° 0 mm 4 mps 742 mmHg 93%
    02:00 -1°C° 0 mm 4 mps 742 mmHg 93%
    03:00 -1°C° 0 mm 4 mps 741 mmHg 93%
    04:00 -1°C° 0 mm 4 mps 741 mmHg 94%
    05:00 0°C° 0 mm 3 mps 741 mmHg 94%
    06:00 -1°C° 0 mm 4 mps 741 mmHg 94%
    07:00 -1°C° 0 mm 4 mps 741 mmHg 94%
    08:00 -1°C° 0 mm 4 mps 741 mmHg 94%
    09:00 -1°C° 0 mm 4 mps 741 mmHg 95%
    10:00 0°C° 0 mm 4 mps 741 mmHg 96%
    11:00 0°C° 0 mm 5 mps 741 mmHg 97%
    12:00 0°C° 0 mm 5 mps 741 mmHg 96%
    13:00 0°C° 0 mm 5 mps 741 mmHg 95%
    14:00 0°C° 0 mm 5 mps 740 mmHg 94%
    15:00 0°C° 0 mm 5 mps 740 mmHg 92%
    16:00 0°C° 0 mm 5 mps 740 mmHg 89%
    17:00 0°C° 0 mm 5 mps 740 mmHg 87%
    18:00 -1°C° 0.1 mm 6 mps 740 mmHg 87%
    19:00 -1°C° 0.1 mm 6 mps 740 mmHg 87%
    20:00 -1°C° 0.1 mm 6 mps 740 mmHg 87%
    21:00 -2°C° 0.1 mm 6 mps 740 mmHg 83%
    22:00 -3°C° 0.1 mm 6 mps 740 mmHg 79%
    23:00 -4°C° 0.1 mm 6 mps 740 mmHg 76%

    Day after tomorrow, 21 February, Thursday

    Time Temperature Precipitation Wind Pressure Humidity
    00:00 -5°C° 0 mm 6 mps 741 mmHg 75%
    01:00 -5°C° 0 mm 6 mps 741 mmHg 75%
    02:00 -6°C° 0 mm 6 mps 742 mmHg 74%
    03:00 -6°C° 0 mm 6 mps 742 mmHg 74%
    04:00 -8°C° 0 mm 6 mps 742 mmHg 74%
    05:00 -8°C° 0 mm 6 mps 742 mmHg 74%
    06:00 -8°C° 0 mm 6 mps 743 mmHg 74%
    07:00 -9°C° 0 mm 6 mps 743 mmHg 74%
    08:00 -9°C° 0 mm 6 mps 744 mmHg 73%
    09:00 -8°C° 0 mm 6 mps 744 mmHg 71%
    10:00 -8°C° 0 mm 7 mps 745 mmHg 70%
    11:00 -8°C° 0 mm 7 mps 745 mmHg 68%
    12:00 -8°C° 0 mm 7 mps 745 mmHg 68%
    13:00 -6°C° 0 mm 6 mps 746 mmHg 67%
    14:00 -6°C° 0 mm 6 mps 746 mmHg 67%
    15:00 -8°C° 0 mm 6 mps 746 mmHg 69%
    16:00 -7°C° 0 mm 5 mps 746 mmHg 71%
    17:00 -7°C° 0 mm 4 mps 747 mmHg 74%
    18:00 -8°C° 0 mm 4 mps 747 mmHg 75%
    19:00 -8°C° 0 mm 4 mps 747 mmHg 76%
    20:00 -9°C° 0 mm 4 mps 747 mmHg 77%
    21:00 -9°C° 0 mm 4 mps 748 mmHg 78%
    22:00 -10°C° 0 mm 4 mps 748 mmHg 79%
    23:00 -9°C° 0 mm 3 mps 749 mmHg 80%

    22 February, Friday

    Time Temperature Precipitation Wind Pressure Humidity
    00:00 -11°C° 0 mm 4 mps 749 mmHg 80%
    01:00 -11°C° 0 mm 4 mps 750 mmHg 80%
    02:00 -11°C° 0 mm 4 mps 750 mmHg 80%
    03:00 -12°C° 0 mm 4 mps 751 mmHg 80%
    04:00 -12°C° 0 mm 4 mps 751 mmHg 79%
    05:00 -14°C° 0 mm 5 mps 751 mmHg 79%
    06:00 -14°C° 0 mm 5 mps 752 mmHg 78%
    07:00 -14°C° 0 mm 5 mps 753 mmHg 77%
    08:00 -15°C° 0 mm 6 mps 754 mmHg 76%
    09:00 -14°C° 0 mm 6 mps 754 mmHg 73%
    10:00 -13°C° 0 mm 7 mps 755 mmHg 71%
    11:00 -12°C° 0 mm 7 mps 755 mmHg 68%
    12:00 -12°C° 0 mm 7 mps 755 mmHg 67%
    13:00 -12°C° 0 mm 8 mps 755 mmHg 66%
    14:00 -11°C° 0 mm 8 mps 756 mmHg 65%
    15:00 -11°C° 0 mm 7 mps 756 mmHg 66%
    16:00 -11°C° 0 mm 6 mps 756 mmHg 67%
    17:00 -11°C° 0 mm 5 mps 756 mmHg 68%
    18:00 -11°C° 0 mm 5 mps 757 mmHg 70%
    19:00 -11°C° 0 mm 5 mps 757 mmHg 72%
    20:00 -12°C° 0 mm 5 mps 757 mmHg 75%
    21:00 -12°C° 0 mm 5 mps 758 mmHg 75%
    22:00 -12°C° 0 mm 5 mps 758 mmHg 75%
    23:00 -13°C° 0 mm 5 mps 758 mmHg 75%

    23 February, Saturday

    Time Temperature Precipitation Wind Pressure Humidity
    00:00 -13°C° 0 mm 5 mps 758 mmHg 76%
    01:00 -13°C° 0 mm 5 mps 759 mmHg 78%
    02:00 -13°C° 0 mm 5 mps 759 mmHg 79%
    03:00 -14°C° 0 mm 4 mps 759 mmHg 81%
    04:00 -14°C° 0 mm 4 mps 759 mmHg 82%
    05:00 -14°C° 0 mm 4 mps 759 mmHg 84%
    06:00 -14°C° 0 mm 4 mps 760 mmHg 84%
    07:00 -14°C° 0 mm 4 mps 760 mmHg 84%
    08:00 -15°C° 0 mm 4 mps 760 mmHg 84%
    09:00 -14°C° 0 mm 4 mps 760 mmHg 82%
    10:00 -12°C° 0 mm 4 mps 760 mmHg 79%
    11:00 -11°C° 0 mm 4 mps 760 mmHg 77%
    12:00 -11°C° 0 mm 4 mps 760 mmHg 76%
    13:00 -10°C° 0 mm 4 mps 760 mmHg 75%
    14:00 -10°C° 0 mm 4 mps 760 mmHg 73%
    15:00 -9°C° 0 mm 3 mps 760 mmHg 75%
    16:00 -9°C° 0 mm 3 mps 759 mmHg 76%
    17:00 -10°C° 0 mm 3 mps 759 mmHg 78%
    18:00 -10°C° 0 mm 3 mps 759 mmHg 79%
    19:00 -9°C° 0 mm 2 mps 759 mmHg 80%
    20:00 -9°C° 0 mm 2 mps 759 mmHg 81%
    21:00 -9°C° 0 mm 2 mps 759 mmHg 81%
    22:00 -8°C° 0 mm 1 mps 759 mmHg 81%
    23:00 -8°C° 0 mm 1 mps 759 mmHg 81%

    24 February, Sunday

    Time Temperature Precipitation Wind Pressure Humidity
    00:00 -8°C° 0 mm 1 mps 759 mmHg 81%
    01:00 -8°C° 0 mm 1 mps 759 mmHg 81%
    02:00 -8°C° 0 mm 1 mps 759 mmHg 81%
    03:00 -8°C° 0 mm 1 mps 759 mmHg 81%
    04:00 -8°C° 0 mm 1 mps 759 mmHg 82%
    05:00 -8°C° 0 mm 1 mps 759 mmHg 82%
    06:00 -8°C° 0 mm 1 mps 759 mmHg 82%
    07:00 -8°C° 0 mm 1 mps 759 mmHg 82%
    08:00 -8°C° 0 mm 1 mps 759 mmHg 82%
    09:00 -7°C° 0 mm 1 mps 760 mmHg 78%
    10:00 -6°C° 0 mm 1 mps 760 mmHg 74%
    11:00 -4°C° 0 mm 1 mps 760 mmHg 71%
    12:00 -3°C° 0 mm 1 mps 760 mmHg 71%
    13:00 -5°C° 0 mm 2 mps 760 mmHg 72%
    14:00 -4°C° 0 mm 2 mps 760 mmHg 72%
    15:00 -5°C° 0 mm 2 mps 760 mmHg 76%
    16:00 -5°C° 0 mm 2 mps 760 mmHg 81%
    17:00 -4°C° 0 mm 1 mps 760 mmHg 85%
    18:00 -4°C° 0 mm 1 mps 760 mmHg 86%
    19:00 -4°C° 0 mm 1 mps 760 mmHg 88%
    20:00 -4°C° 0 mm 1 mps 761 mmHg 89%
    21:00 -4°C° 0 mm 1 mps 760 mmHg 89%
    22:00 -3°C° 0 mm 1 mps 760 mmHg 89%
    23:00 -3°C° 0 mm 1 mps 760 mmHg 89%
    Show more